Время (UTC), дата Ветер
(°,м/с) 
Видим.   Явления Облачность Т
(°С)
Тd
(°С)
f(%) Тe
(°С)
Pmin
(гПа)
dP
(гПа)
Po
(мм)
O2
(г/м3)
Тmin Tmax R s Состояние
почвы
00 16.06.15 280 (З) 20000 м    3/0 средняя 
[Ac trans]
+17.4 +12.4 72 +23  1009  -0.8  718  269           
03 16.06.15 160 (Ю) 20000 м    8/0 средняя 
[Ac trans]
+18 +13.4 74 +26  1009.1  0.2  718  269  +14.9        сухая 
06 16.06.15 100 (В) 20000 м    8/0 средняя, верхняя 
[Ac trans|Ci fib]
+23.8 +13.4 52 +31  1007.8  -0.2  718  263           
09 16.06.15 050 (СВ) 20000 м    8/4 600 м верхняя 
[Cu hum|Ci fib]
+26.7 +12 40 +32  1006.9  -0.5  718  261           
12 16.06.15 010 (С) 20000 м    9/4 600 м кучево-дожд., средняя, верхняя 
[Cb calv|Ac trans|Ci fib]
+25.9 +13.3 46 +33  1005.8  -1.1  717  261           
15 16.06.15 280 (З) 20000 м    9/4 600 м кучево-дожд., средняя, верхняя 
[Cb calv|Ac trans|Ci fib]
+20.3 +15 72 +30  1006.6  -0.1  717  266    +26.8       
18 16.06.15 280 (З) 6{10}  20000 м  {ливн. осадки}  10/5 1000 м кучево-дожд., средняя 
[Cb calv|Ac und]
+19 +14.6 76 +28  1007.4  0.5  717  267           
21 16.06.15 320 (СЗ) 20000 м    10/3 600 м кучево-дожд., средняя 
[Cb calv|Ac und]
+17.5 +14.7 84 +28  1008  0.4  717  268           
00 17.06.15 270 (З) 20000 м  в посл. час ливневой дождь  10/5 1000 м кучево-дожд., средняя 
[Cb calv|Ac und]
+17.5 +16.1 91 +30  1007.8  0.4  717  268           
03 17.06.15 260 (З) 10 км  слаб. ливневой дождь  10/6 300 м кучево-дожд., средняя 
[Cb cap|Ac und]
+16.8 +15.7 93 +28  1007.8  0.1  717  269  +16.6      влажная 
06 17.06.15 270 (З) 20000 м  {ливн. осадки}  10/6 1000 м кучево-дожд., средняя 
[Cb calv|Ac und]
+19.9 +17.1 84 +34  1007.2  717  265           
09 17.06.15 280 (З) 20000 м    10/6 1000 м кучево-дожд., средняя 
[Cb calv|Ac und]
+21.4 +16 71 +33  1006.8  0.1  717  264           
12 17.06.15 250 (З) 20000 м    10/6 600 м кучево-дожд., средняя 
[Cb calv|Ac und]
+21.4 +16 71 +33  1006.1  -0.7  716  264           
15 17.06.15 270 (З) 20000 м    8/5 600 м кучево-дожд., средняя 
[Cb calv|Ac trans]
+21.2 +15.7 71 +32  1005.7  -0.4  716  264    +23.4     
18 17.06.15 270 (З) 20000 м  в посл. час ливневой дождь  9/8 600 м кучево-дожд., средняя 
[Cb calv|Ac trans]
+18.2 +15.1 82 +29  1007.3  717  268           
21 17.06.15 250 (З) 20000 м    8/5 600 м кучево-дожд., средняя 
[Cb calv|Ac trans]
+17.8 +12.9 73 +24  1007.2  -0.2  717  269           
00 18.06.15 290 (З) 20000 м    6/0 средняя 
[Ac trans]
+17.8 +14.9 83 +28  1006.9  -0.3  717  268           
03 18.06.15 250 (З) 20000 м    9/4 1000 м кучево-дожд., средняя 
[Cb calv|Ac trans]
+18.6 +14.9 79 +29  1007.2  0.5  717  267  +17.3        сухая 
06 18.06.15 280 (З) 20000 м    8/4 1000 м кучево-дожд., средняя 
[Cb calv|Ac trans]
+20.8 +14 65 +29  1007.2  0.3  717  266           
09 18.06.15 280 (З) 20000 м    8/4 600 м средняя 
[Cu hum|Ac trans]
+25.2 +12.8 46 +31  1006.2  -0.2  717  262           
12 18.06.15 260 (З) 20000 м    8/4 600 м средняя 
[Cu hum|Ac trans]
+26.3 +12.9 43 +33  1005.5  -0.5  717  261           
15 18.06.15 250 (З) 20000 м    3/3 1000 м 
[Cu hum]
+25.6 +13.1 46 +32  1005.4  -0.2  716  261    +26.9       
18 18.06.15 290 (З) 20000 м    4/0 верхняя 
[Ci fib]
+21.6 +13 58 +28  1006.8  0.7  717  265           
21 18.06.15 350 (С) 20000 м    ясно 
+19.5 +13.5 68 +28  1006.6  -0.6  717  267           
00 19.06.15 100 (В) 20000 м    ясно 
+18.5 +13 70 +26  1006  -0.8  716  268           
03 19.06.15 140 (ЮВ) 20000 м    4/0 верхняя 
[Ci fib]
+20.1 +14.5 70 +29  1005.8  0.2  716  266  +17.2        сухая 
06 19.06.15 090 (В) 20000 м    3/0 верхняя 
[Ci fib]
+25.2 +14 50 +33  1004.7  -0.3  716  261           
09 19.06.15 100 (В) 6-10{10}  20000 м    4/4 600 м 
[Cu hum]
+29.6 +12.7 35 +36  1003.1  -0.8  715  258           
12 19.06.15 140 (ЮВ) 5{10}  20000 м    9/4 1000 м средняя 
[Cu hum|Ac trans]
+30.4 +13.3 35 +37  1002.1  -0.8  715  257           
15 19.06.15 240 (ЮЗ) 2{10}  20000 м    9/3 1000 м верхняя 
[Sc diur, vesp|Ci]
+26.3 +17.4 58 +41  1001.4  -1.2  714  258    +30.5       
18 19.06.15 330 (СЗ) 20000 м    3/3 1000 м 
[Sc]
+22.1 +14.8 63 +32  1002.9  0.6  714  263           
21 19.06.15 250 (З) 7-13{20}  10 км  слаб. ливневой дождь, в посл. час гроза  10/4 600 м кучево-дожд., средняя 
[Cb cap|Ac und]
+18 +12.9 72 +24  1007  3.2  717  268           
00 20.06.15 330 (СЗ) 3{13}  20000 м  гроза без осадков{ливн. осадки}  10/4 600 м кучево-дожд., средняя 
[Cb calv|Ac und]
+17.5 +14.3 81 +27  1004.8  -2.1  715  268           
03 20.06.15 270 (З) 20000 м  {гроза}  8/4 600 м кучево-дожд., средняя 
[Cb calv|Ac trans]
+17.9 +15 83 +29  1005.3  0.5  715  267  +15.7      влажная 
06 20.06.15 120 (ЮВ) 20000 м  {гроза}  6/0 средняя 
[Ac trans]
+23.1 +15.4 62 +34  1005.7  1.3  716  263           
09 20.06.15 300 (СЗ) 20000 м    5/3 600 м средняя 
[Cu hum|Ac trans]
+27.4 +13.1 41 +34  1004.8  -0.2  716  260           
12 20.06.15 360 (С) 20000 м    8/4 600 м средняя, верхняя 
[Cu hum|Ac trans|Ci fib]
+28.3 +10.7 33 +31  1004.3  -0.3  716  259           
15 20.06.15 250 (З) 9-13{15}  20000 м    9/5 600 м кучево-дожд., средняя 
[Cb calv|Ac trans]
+22.3 +15.9 67 +34  1007.3  718  264    +29.2       
18 20.06.15 260 (З) 6-10{16}  20000 м  в посл. час гроза{ливн. осадки}  9/4 600 м кучево-дожд., средняя 
[Cb calv|Ac trans]
+18 +12.7 71 +24  1007.6  -0.6  717  269           
21 20.06.15 310 (СЗ) 4{10}  20000 м    10/4 1000 м средняя 
[Sc diur, vesp|Ac und]
+18.6 +12 65 +24  1007.6  0.1  717  268           
00 21.06.15 220 (ЮЗ) 20000 м    5/0 средняя 
[Ac trans]
+17.9 +13.4 75 +25  1009.3  1.5  718  269           
03 21.06.15 250 (З) 20000 м    8/0 средняя 
[Ac trans]
+19 +14.9 77 +30  1009.1  718  267  +17    0.8    влажная 
06 21.06.15 300 (СЗ) 20000 м    9/4 1000 м средняя 
[Sc|Ac trans]
+22.1 +13.7 59 +30  1009.4  0.7  719  265           
09 21.06.15 360 (С) 20000 м  {ливн. осадки}  8/4 600 м кучево-дожд., средняя 
[Cb calv|Ac trans]
+24.7 +15.5 57 +35  1008.9  719  262           
12 21.06.15 010 (С) 20000 м  {ливн. осадки}  8/4 600 м кучево-дожд., средняя 
[Cb calv|Ac trans]
+27.7 +15.2 46 +38  1008.2  -0.2  719  260           
15 21.06.15 040 (СВ) 10-14{14}  10 км  гроза, ливневой дождь  10/8 600 м кучево-дожд., средняя 
[Cb cap|Ac und]
+19.3 +16.3 83 +31  1010  0.4  719  267    +27.8     
18 21.06.15 330 (СЗ) 3{15}  20000 м  {гроза, ливн. осадки}  8/4 600 м кучево-дожд., средняя 
[Cb calv|Ac trans]
+18 +16.5 91 +32  1011  0.8  720  268           
21 21.06.15 230 (ЮЗ) 20000 м    8/3 1000 м кучево-дожд., средняя 
[Cb calv|Ac trans]
+16.8 +14.3 85 +27  1011  -0.3  719  270           
00 22.06.15 030 (СВ) 20000 м    5/3 1000 м кучево-дожд., средняя 
[Cb calv|Ac trans]
+17.5 +14.3 81 +27  1011.9  1.1  720  270           
03 22.06.15 100 (В) 20000 м    3/0 верхняя 
[Ci fib]
+19.1 +15.9 82 +31  1011.3  -0.2  720  268  +16        сухая 
06 22.06.15 060 (СВ) 20000 м    4/3 600 м верхняя 
[Cu hum|Ci fib]
+23.2 +17.2 69 +37  1010.9  0.3  720  264           
09 22.06.15 040 (СВ) 20000 м    8/3 600 м верхняя 
[Cu hum|Ci fib]
+26.4 +15.7 52 +37  1010.3  0.1  720  261           
12 22.06.15 060 (СВ) 20000 м    8/4 1000 м кучево-дожд., средняя 
[Cb calv|Ac trans]
+28.1 +15.2 45 +38  1009.8  -0.2  720  260           
15 22.06.15 250 (З) 20000 м  гроза, ливневой дождь  10/6 600 м кучево-дожд., средняя 
[Cb cap|Ac und]
+23.7 +18.7 74 +41  1011.1  0.6  720  263    +28.7  0.5     
18 22.06.15 250 (З) 20000 м  в посл. час ливневой дождь{гроза}  10/6 600 м кучево-дожд., средняя 
[Cb calv|Ac und]
+20.5 +17 80 +34  1012.4  0.6  721  266           
21 22.06.15 330 (СЗ) 20000 м    9/5 600 м кучево-дожд., средняя 
[Cb calv|Ac trans]
+21.7 +16.8 74 +35  1011.3  -0.8  720  265           
00 23.06.15 330 (СЗ) н/о    н/о 
+20.1 +16 77 +32  1011.7  720  267           
03 23.06.15 350 (С) 20000 м    8/4 600 м кучево-дожд., средняя 
[Cb calv|Ac trans]
+20.5 +16.1 76 +32  1011.9  0.3  721  267  +18.9    0.8    влажная 
06 23.06.15 080 (В) 20000 м    6/0 средняя 
[Ac trans]
+25.2 +18.2 65 +41  1010.5  -0.5  720  261           
09 23.06.15 040 (СВ) 20000 м    8/4 600 м средняя 
[Cu hum|Ac trans]
+29.8 +12.5 35 +35  1008.8  -0.9  719  259           
12 23.06.15 050 (СВ) 20000 м    8/3 600 м средняя 
[Cu med, cong|Ac trans]
+30.8 +12.4 32 +36  1007.4  -1.2  719  258           
15 23.06.15 360 (С) 20000 м    8/3 600 м средняя 
[Cu med, cong|Ac trans]
+31 +12.1 31 +36  1006.5  -0.8  718  257    +31.5       
18 23.06.15 350 (С) 7-10{10}  20000 м    9/3 600 м кучево-дожд., средняя 
[Cb calv|Ac trans]
+24.2 +15.5 58 +35  1008.3  0.7  718  263           
21 23.06.15 330 (СЗ) 6{10}  20000 м    10/3 600 м кучево-дожд., средняя 
[Cb calv|Ac und]
+21 +17.4 80 +35  1008.7  -0.2  718  265           
00 24.06.15 330 (СЗ) 9-14{15}  20000 м  гроза, ливневой дождь  10/5 600 м кучево-дожд., средняя 
[Cb cap|Ac und]
+19.2 +14.7 75 +28  1010  0.9  719  268           
03 24.06.15 350 (С) 2{14}  20000 м  {гроза, ливн. осадки}  8/3 300 м средняя 
[St|Ac As]
+17.9 +16.1 89 +31  1010.6  0.4  719  268  +17.3        сухая 
06 24.06.15 320 (СЗ) 20000 м  {гроза, ливн. осадки}  8/0 средняя 
[Ac trans]
+22.1 +16.6 71 +35  1010  0.2  719  264           
09 24.06.15 350 (С) 20000 м    8/3 600 м средняя 
[Cu hum|Ac trans]
+24.5 +16.7 62 +38  1008.9  -0.7  719  262           
12 24.06.15 290 (З) 20000 м    4/3 600 м средняя 
[Cu hum|Ac trans]
+26.8 +16.6 54 +40  1008.4  0.1  719  260           
15 24.06.15 300 (СЗ) 20000 м    9/0 средняя, верхняя 
[Ac trans|Ci fib]
+26.3 +17.2 57 +40  1007.1  -1.2  718  260    +28.1       
18 24.06.15 320 (СЗ) 20000 м    8/0 средняя, верхняя 
[Ac trans|Ci fib]
+24.3 +16.4 61 +37  1007.9  0.4  718  262           
21 24.06.15 340 (С) 20000 м    9/3 600 м кучево-дожд., средняя 
[Cb calv|Ac trans]
+22.5 +16.6 69 +35  1007.1  -1.1  717  263           
00 25.06.15 300 (СЗ) 5{19}  20000 м  слаб. ливневой дождь{гроза}  10/5 600 м кучево-дожд., средняя 
[Cb cap|Ac und]
+16.7 +15.3 91 +28  1005.2  -2.7  715  268           
03 25.06.15 270 (З) 20000 м  в посл. час ливневой дождь  9/4 1000 м кучево-дожд., средняя 
[Cb calv|Ac trans]
+17.2 +15.5 90 +30  1007.1  1.8  717  268  +16.1      влажная 
06 25.06.15 320 (СЗ) 20000 м  {ливн. осадки}  8/3 1000 м кучево-дожд., средняя 
[Cb calv|Ac trans]
+22.6 +15.9 66 +34  1006.9  0.8  717  263           
09 25.06.15 050 (СВ) 20000 м    8/3 600 м кучево-дожд., средняя 
[Cb calv|Ac trans]
+26 +17 58 +40  1005.3  -1  716  260           
12 25.06.15 340 (С) 20000 м    8/3 600 м кучево-дожд., средняя 
[Cb calv|Ac trans]
+27.8 +15.4 47 +38  1004.6  -0.5  716  259           
15 25.06.15 330 (СЗ) 20000 м    8/1 1000 м кучево-дожд., средняя, верхняя 
[Cb calv|Ac trans|Ci fib]
+25.6 +18.1 63 +42  1003.7  -1  715  259    +28.3       
18 25.06.15 310 (СЗ) 20000 м    8/0 средняя 
[Ac trans]
+23 +17.8 73 +38  1005.3  716  262           
21 25.06.15 290 (З) 20000 м    6/3 1000 м кучево-дожд., средняя 
[Cb calv|Ac trans]
+21 +18.5 86 +38  1004.4  715  263           
00 26.06.15 290 (З) 20000 м    8/3 1000 м кучево-дожд., средняя 
[Cb calv|Ac trans]
+19.9 +16.8 82 +33  1004.3  -0.3  715  265           
03 26.06.15 300 (СЗ) 2{10}  20000 м  гроза без осадков{ливн. осадки}  9/6 1000 м кучево-дожд., средняя 
[Cb calv|Ac trans]
+19.7 +15.9 79 +33  1004.2  -0.2  715  265  +18.7    0.3    сухая 
06 26.06.15 280 (З) 4{13}  2000 м  гроза, ливневой дождь  10/8 300 м кучево-дожд., средняя 
[Cb cap|Ac und]
+17.3 +16.4 94 +31  1006  1.3  716  268  +17.3         
09 26.06.15 310 (СЗ) 20000 м  в посл. час ливневой дождь{гроза}  10/8 300 м кучево-дожд., средняя 
[Cb calv|Ac und]
+18.4 +17.6 95 +34  1005.6  0.1  716  266           
12 26.06.15 300 (СЗ) 20000 м  {гроза, ливн. осадки}  10/3 600 м кучево-дожд., средняя 
[Cb calv|Ac und]
+21.6 +17.4 77 +36  1004.9  -0.2  716  263           
15 26.06.15 290 (З) 20000 м    9/3 600 м кучево-дожд., средняя, верхняя 
[Cb calv|Ac trans|Ci fib]
+23 +16.7 68 +36  1004.5  -0.1  716  262    +23.4  21     
18 26.06.15 290 (З) 20000 м    10/6 600 м кучево-дожд., средняя 
[Cb calv|Ac und]
+20.8 +16.5 76 +34  1005.5  0.6  716  264           
21 26.06.15 240 (ЮЗ) 20000 м  в посл. час ливневой дождь  8/6 600 м кучево-дожд., средняя 
[Cb calv|Ac trans]
+18.9 +16.2 84 +32  1006.3  0.6  716  266           
00 27.06.15 300 (СЗ) 20000 м  {ливн. осадки}  4/3 1000 м кучево-дожд., средняя 
[Cb calv|Ac trans]
+18.2 +15.7 85 +29  1005.7  -0.7  716  267           
03 27.06.15 290 (З) 20000 м    8/0 средняя, верхняя 
[Ac trans|Ci fib]
+18.8 +16.5 86 +32  1005.9  0.3  716  266  +17.5        влажная 
06 27.06.15 300 (СЗ) 20000 м    8/0 средняя, верхняя 
[Ac As|Ci fib]
+22.2 +14.7 62 +32  1005.9  0.5  716  264           
09 27.06.15 280 (З) 20000 м    8/3 600 м кучево-дожд., верхняя 
[Cb calv|Ci fib]
+24.4 +15.1 56 +35  1005.2  -0.3  716  262           
12 27.06.15 270 (З) 20000 м  слаб. ливневой дождь  10/4 600 м кучево-дожд., средняя 
[Cb cap|Ac und]
+22.5 +16.6 69 +35  1005.7  -0.3  716  263           
15 27.06.15 240 (ЮЗ) 20000 м  в посл. час ливневой дождь  10/3 600 м кучево-дожд., средняя 
[Cb calv|Ac und]
+20.4 +15.9 75 +32  1006.3  0.2  717  265    +24.7  0.3     
18 27.06.15 230 (ЮЗ) 20000 м  {ливн. осадки, дождь}  8/0 средняя 
[Ac trans]
+18.7 +15.4 81 +30  1007.7  717  267           
21 27.06.15 250 (З) 20000 м    6/0 средняя 
[Ac trans]
+16.9 +13.9 82 +25  1007.5  -0.6  717  269           
00 28.06.15 250 (З) 20000 м    8/0 средняя 
[Ac trans]
+17.2 +13.8 80 +26  1006.9  -0.5  717  269           
03 28.06.15 320 (СЗ) 20000 м    3/0 средняя 
[Ac trans]
+18.3 +14.4 78 +28  1007.2  0.5  717  268  +16.2        влажная 
06 28.06.15 020 (С) 20000 м    3/3 600 м 
[Cu hum]
+22.8 +14.3 59 +31  1006.4  717  264           
09 28.06.15 070 (В) 20000 м    5/4 600 м верхняя 
[Cu hum|Ci fib]
+24.7 +13.3 49 +32  1005.9  -0.2  717  262           
12 28.06.15 130 (ЮВ) 20000 м    8/5 1000 м кучево-дожд., средняя 
[Cb calv|Ac trans]
+25.3 +14.7 52 +35  1005.6  0.1  717  261           
15 28.06.15 290 (З) 8-13{15}  20000 м    8/5 600 м кучево-дожд., средняя 
[Cb calv|Ac trans]
+19.6 +15.5 77 +31  1007.4  0.8  717  266    +27.1       
18 28.06.15 300 (СЗ) 5{13}  20000 м    3/0 средняя 
[Ac trans]
+18.3 +12.4 68 +23  1009.3  1.5  718  269           
21 28.06.15 310 (СЗ) 5{10}  20000 м    5/0 средняя 
[Ac trans]
+17.6 +13.5 77 +25  1010  0.6  719  269           
00 29.06.15 280 (З) 20000 м    10/5 1000 м кучево-дожд., средняя 
[Cb calv|Ac und]
+17.8 +13.9 78 +26  1011.3  1.2  720  269           
03 29.06.15 020 (С) 20000 м  в посл. час гроза{ливн. осадки}  9/4 600 м кучево-дожд., средняя 
[Cb calv|Ac trans]
+15.9 +15 94 +26  1011.5  0.1  720  271  +15.7      влажная 
06 29.06.15 030 (СВ) 20000 м  {гроза, ливн. осадки}  9/4 600 м кучево-дожд., средняя 
[Cb calv|Ac trans]
+19.8 +12.4 62 +26  1012.9  1.9  721  268           
09 29.06.15 360 (С) 20000 м    9/5 1000 м кучево-дожд., средняя 
[Cb calv|Ac trans]
+22.1 +14.4 62 +31  1012.2  -0.2  721  266           
12 29.06.15 290 (З) 4{10}  20000 м  гроза без осадков{ливн. осадки}  10/5 1000 м кучево-дожд., средняя 
[Cb calv|Ac und]
+20.8 +14.5 67 +30  1013.5  722  267           
15 29.06.15 270 (З) 2{10}  20000 м  {гроза, ливн. осадки}  5/3 1000 м кучево-дожд., средняя 
[Cb calv|Ac trans]
+20.6 +14.7 69 +30  1013.8  0.2  722  267    +23  0.5     
18 29.06.15 180 (Ю) 20000 м  {гроза, ливн. осадки}  4/0 средняя 
[Ac trans]
+18.1 +14.4 79 +28  1014.8  0.5  722  270           
21 29.06.15 250 (З) 20000 м    8/0 средняя 
[Ac trans]
+16.8 +14.8 88 +27  1015  0.1  722  271           
00 30.06.15 320 (СЗ) 20000 м    8/0 средняя 
[Ac trans]
+17.5 +12.4 72 +23  1015.3  0.4  722  271           
03 30.06.15 270 (З) 20000 м    9/4 600 м кучево-дожд., средняя 
[Cb calv|Ac trans]
+16.9 +11.4 70 +22  1015.6  0.2  723  272  +16.3        влажная 
06 30.06.15 350 (С) 20000 м    9/3 1000 м средняя 
[Sc diur, vesp|Ac trans]
+19 +11.8 63 +24  1015  -0.2  722  270           
09 30.06.15 020 (С) 20000 м    9/4 1000 м средняя 
[Cu hum|Ac trans]
+21.8 +12.4 55 +27  1013.7  -0.7  722  267           
12 30.06.15 330 (СЗ) 20000 м    9/4 1000 м кучево-дожд., средняя 
[Cb calv|Ac trans]
+22.4 +14.2 60 +31  1013.4  -0.2  722  266           
15 30.06.15 290 (З) 20000 м    10/4 1000 м кучево-дожд., средняя 
[Cb calv|Ac trans]
+20 +14.3 70 +28  1014.5  0.7  722  268    +23.1       
18 30.06.15 280 (З) 20000 м    9/3 600 м кучево-дожд., средняя 
[Cb calv|Ac trans]
+18 +15.8 87 +30  1015.4  0.6  723  270           
21 30.06.15 220 (ЮЗ) 20000 м    10/3 1000 м кучево-дожд., средняя 
[Cb calv|Ac und]
+17.6 +14.6 83 +27  1015.9  0.3  723  271           
00 01.07.15 270 (З) 20000 м    8/0 средняя 
[Ac trans]
+16.9 +14.7 87 +26  1016.5  0.5  723  271           
03 01.07.15 280 (З) 10 км    8/3 200 м средняя 
[St|Ac trans]
+16.4 +15 91 +26  1017.9  1.2  724  272  +15.8        сухая 
06 01.07.15 290 (З) 20000 м    5/5 600 м кучево-дожд. 
[Cb calv]
+21.1 +14.4 66 +30  1017.8  0.7  725  268           
09 01.07.15 250 (З) 20000 м    5/5 600 м 
[Cu hum]
+24.1 +13.3 51 +31  1017.3  725  266           
Время (UTC), дата Ветер
(°,м/с) 
Видим.   Явления Облачность Т
(°С)
Тd
(°С)
f(%) Тe
(°С)
Pmin
(гПа)
dP
(гПа)
Po
(мм)
O2
(г/м3)
Тmin Tmax R s Состояние
почвы